Weather History for Oxnard, CA

Change the Weather History Date:

Thursday, February 27, 2014

  Actual Average Record
Temperature  
Mean Temperature 60 °F -  
Max Temperature 64 °F 67 °F 83 °F (1992)
Min Temperature 55 °F 46 °F 30 °F (1962)
Degree Days  
Heating Degree Days 6    
Growing Degree Days 10 (Base 50)    
Moisture  
Dew Point 55 °F    
Average Humidity 89    
Maximum Humidity 100    
Minimum Humidity 65    
Precipitation  
Precipitation 0.69 in - - ()
Sea Level Pressure  
Sea Level Pressure 29.94 in    
Wind  
Wind Speed 5 mph (South)    
Max Wind Speed 10 mph    
Max Gust Speed 17 mph    
Visibility 8 miles    
Events Rain    
Averages and records for this station are not official NWS values.
T = Trace of Precipitation, MM = Missing Value Source: NWS Daily Summary

Daily Weather History Graph

Daily Weather History Graph

Search for Another Location

Airport:

Trip Planner

Search our weather history database for the weather conditions in past years. The results will help you decide how hot, cold, wet, or windy it might be!

Date:

Astronomy

Feb. 27, 2014 Rise Set
Actual Time 6:27 AM PST 5:51 PM PST
Civil Twilight 6:02 AM PST 6:16 PM PST
Nautical Twilight 5:33 AM PST 6:45 PM PST
Astronomical Twilight 5:04 AM PST 7:14 PM PST
Moon 5:00 AM PST 4:25 PM PST
Length of Visible Light 12h 13m
Length of Day
11h 23m
Waning Crescent, 3% of the Moon is Illuminated
Feb 27
Waning Crescent
Mar 1
New
Mar 8
First Quarter
Mar 16
Full
Mar 23
Last Quarter

Hourly Weather History & Observations

Time (PST) Temp. Dew Point Humidity Pressure Visibility Wind Dir Wind Speed Gust Speed Precip Events Conditions
12:22 AM 55.4 °F 55.4 °F 100% 29.97 in 1.8 mi North 3.5 mph - 0.07 in Rain Rain
12:48 AM 55.4 °F 53.6 °F 94% 29.97 in 2.0 mi East 5.8 mph - 0.25 in Rain Rain
12:51 AM 55.9 °F 55.0 °F 97% 29.97 in 2.0 mi East 5.8 mph - 0.26 in Rain Rain
1:13 AM 55.4 °F 55.4 °F 100% 29.97 in 1.2 mi ENE 4.6 mph - 0.12 in Rain Heavy Rain
1:22 AM 55.4 °F 55.4 °F 100% 29.97 in 2.0 mi East 3.5 mph - 0.14 in Rain Rain
1:35 AM 57.2 °F 55.4 °F 94% 29.96 in 5.0 mi SE 8.1 mph - 0.15 in Rain Light Rain
1:51 AM 59.0 °F 57.0 °F 93% 29.95 in 2.0 mi SSE 10.4 mph - 0.17 in Rain Light Rain
2:02 AM 59.0 °F 57.2 °F 94% 29.95 in 1.5 mi South 10.4 mph 17.3 mph 0.04 in Rain Rain
2:28 AM 59.0 °F 57.2 °F 94% 29.96 in 2.0 mi SW 8.1 mph - 0.15 in Rain Light Rain
2:43 AM 59.0 °F 57.2 °F 94% 29.95 in 9.0 mi SSW 5.8 mph - 0.16 in   Overcast
2:51 AM 59.0 °F 57.9 °F 96% 29.96 in 10.0 mi SW 5.8 mph - 0.16 in   Overcast
3:06 AM 59.0 °F 57.2 °F 94% 29.95 in 10.0 mi SW 9.2 mph - N/A   Mostly Cloudy
3:16 AM 59.0 °F 57.2 °F 94% 29.94 in 10.0 mi SW 8.1 mph - N/A   Mostly Cloudy
3:30 AM 59.0 °F 57.2 °F 94% 29.94 in 10.0 mi SW 8.1 mph - N/A   Mostly Cloudy
3:51 AM 59.0 °F 57.0 °F 93% 29.94 in 10.0 mi WSW 6.9 mph - N/A   Overcast
4:05 AM 59.0 °F 57.2 °F 94% 29.95 in 10.0 mi West 8.1 mph - N/A   Overcast
4:25 AM 57.2 °F 55.4 °F 94% 29.95 in 10.0 mi Calm Calm - N/A   Partly Cloudy
4:51 AM 57.0 °F 54.0 °F 89% 29.95 in 10.0 mi Calm Calm - N/A   Clear
5:28 AM 55.4 °F 55.4 °F 100% 29.96 in 10.0 mi Calm Calm - N/A   Mostly Cloudy
5:51 AM 55.9 °F 55.0 °F 97% 29.96 in 10.0 mi Calm Calm - N/A   Mostly Cloudy
6:02 AM 55.4 °F 55.4 °F 100% 29.96 in 9.0 mi Calm Calm - N/A   Mostly Cloudy
6:51 AM 57.0 °F 55.0 °F 93% 29.97 in 9.0 mi Calm Calm - N/A   Overcast
7:51 AM 57.9 °F 55.9 °F 93% 29.99 in 10.0 mi Calm Calm - N/A   Overcast
7:54 AM 57.2 °F 55.4 °F 94% 29.99 in 9.0 mi Calm Calm - N/A   Overcast
8:51 AM 60.1 °F 55.9 °F 86% 30.01 in 10.0 mi WNW 3.5 mph - N/A   Scattered Clouds
9:51 AM 60.1 °F 55.0 °F 83% 30.01 in 10.0 mi SW 5.8 mph - N/A   Partly Cloudy
10:35 AM 62.6 °F 55.4 °F 77% 30.01 in 10.0 mi WSW 3.5 mph - N/A   Mostly Cloudy
10:51 AM 63.0 °F 54.0 °F 72% 30.00 in 10.0 mi SSW 6.9 mph - N/A   Scattered Clouds
11:51 AM 64.9 °F 53.1 °F 65% 29.99 in 10.0 mi SSW 6.9 mph - N/A   Clear
12:51 PM 63.0 °F 55.0 °F 75% 29.96 in 10.0 mi South 8.1 mph - N/A   Clear
1:51 PM 62.1 °F 55.0 °F 78% 29.94 in 10.0 mi South 6.9 mph 16.1 mph N/A   Clear
2:51 PM 61.0 °F 55.0 °F 81% 29.92 in 10.0 mi South 6.9 mph - N/A   Clear
3:51 PM 62.1 °F 54.0 °F 75% 29.89 in 10.0 mi SW 5.8 mph - N/A   Clear
4:25 PM 59.0 °F 55.4 °F 88% 29.89 in 10.0 mi SW 6.9 mph - N/A   Scattered Clouds
4:51 PM 57.9 °F 55.0 °F 90% 29.88 in 5.0 mi Calm Calm - N/A   Haze
5:51 PM 57.0 °F 54.0 °F 89% 29.87 in 10.0 mi Calm Calm - N/A   Scattered Clouds
6:51 PM 57.9 °F 54.0 °F 87% 29.86 in 10.0 mi NE 3.5 mph - N/A   Partly Cloudy
7:51 PM 57.9 °F 54.0 °F 87% 29.86 in 10.0 mi ENE 3.5 mph - N/A   Clear
8:51 PM 59.0 °F 51.1 °F 75% 29.84 in 10.0 mi ENE 8.1 mph - N/A   Overcast
9:51 PM 59.0 °F 52.0 °F 78% 29.86 in 10.0 mi SE 8.1 mph - N/A   Overcast
10:51 PM 57.9 °F 55.0 °F 90% 29.85 in 4.0 mi East 6.9 mph - 0.08 in Rain Rain
11:51 PM 57.0 °F 52.0 °F 83% 29.81 in 9.0 mi ENE 9.2 mph - 0.02 in Rain Light Rain